Location: Poughquag
(41.6090°N, 73.6820°W)
Time: 08:20:24
(UTC-05:00)

N. Korean satellite - Visible Passes

Search period start: 11 December 2018 00:00
Search period end: 21 December 2018 00:00
Orbit: 456 x 511 km, 97.2° (Epoch: 11 December)

Date Brightness Start Highest point End Pass type
(mag) Time Alt. Az. Time Alt. Az. Time Alt. Az.
11 Dec 9.3 05:30:02 10° NE 05:32:50 22° E 05:35:39 10° SSE visible
11 Dec 7.2 17:38:42 10° S 17:42:05 56° W 17:45:27 10° NNW visible
12 Dec 10.1 05:07:05 10° ENE 05:08:06 11° E 05:09:08 10° ESE visible
12 Dec 6.9 06:38:22 10° N 06:41:46 43° WNW 06:45:11 10° SSW visible
12 Dec 6.4 17:14:07 10° SSE 17:17:30 64° ENE 17:20:55 10° N visible
13 Dec 6.6 06:13:40 10° NNE 06:17:15 85° E 06:20:52 10° S visible
13 Dec 9.8 18:24:34 10° SW 18:26:33 15° W 18:28:32 10° WNW visible
14 Dec 8.1 05:49:17 10° NNE 05:52:39 38° E 05:56:04 10° SSE visible
14 Dec 8.6 17:58:48 10° SSW 18:01:50 29° W 18:04:53 10° NW visible
15 Dec 9.5 05:25:19 10° NE 05:27:59 19° E 05:30:40 10° SE visible
15 Dec 6.9 17:33:48 10° S 17:37:11 65° WSW 17:40:38 10° NNW visible
16 Dec 6.7 06:33:26 10° N 06:36:56 51° WNW 06:40:28 10° SSW visible
16 Dec 6.5 17:09:18 10° SSE 17:12:38 54° ENE 17:16:01 10° N visible
17 Dec 6.8 06:08:47 10° NNE 06:12:23 74° ESE 06:16:02 10° S visible
17 Dec 9.6 18:19:22 10° SW 18:21:38 17° W 18:23:55 10° NW visible
18 Dec 8.4 05:44:27 10° NNE 05:47:46 34° E 05:51:08 10° SSE visible
18 Dec 8.3 17:53:47 10° SSW 17:56:54 33° W 18:00:05 10° NNW visible
19 Dec 9.7 05:20:35 10° NE 05:23:04 17° E 05:25:35 10° SE visible
19 Dec 6.6 17:28:52 10° S 17:32:16 77° WSW 17:35:44 10° NNW visible
20 Dec 6.6 06:28:28 10° N 06:32:03 59° WNW 06:35:40 10° SSW visible
20 Dec 6.7 17:04:26 10° SSE 17:07:43 46° ENE 17:11:04 10° N visible
